| time (UTC) | temp C | wind direction | speed KPH | gust KPH | rain 1hr cm | rain 24hr cm | rain mn cm | humidity % | barometer mb |
| 20260508171943 | 15 | 287 | 12.9 | 33.8 | 0.00 | 0.00 | 0.00 | 24 | 1020.7 |
| 20260508171442 | 16 | 24 | 11.3 | 33.8 | 0.00 | 0.00 | 0.00 | 26 | 1020.6 |
| 20260508170943 | 15 | 248 | 9.7 | 24.1 | 0.00 | 0.00 | 0.00 | 27 | 1020.7 |
| 20260508170444 | 16 | 52 | 11.3 | 27.4 | 0.00 | 0.00 | 0.00 | 24 | 1020.8 |
| 20260508165939 | 16 | 297 | 9.7 | 33.8 | 0.00 | 0.00 | 0.00 | 27 | 1020.7 |
| 20260508165439 | 16 | 37 | 12.9 | 33.8 | 0.00 | 0.00 | 0.00 | 27 | 1020.6 |
| 20260508165209 | 15 | 318 | 14.5 | 24.1 | 0.00 | 0.00 | 0.00 | 26 | 1020.7 |
| 20260508164438 | 15 | 267 | 9.7 | 22.5 | 0.00 | 0.00 | 0.00 | 27 | 1020.7 |
| 20260508163939 | 15 | 94 | 8.0 | 22.5 | 0.00 | 0.00 | 0.00 | 26 | 1020.4 |
| 20260508163440 | 15 | 87 | 8.0 | 22.5 | 0.00 | 0.00 | 0.00 | 25 | 1020.7 |
| 20260508162935 | 15 | 327 | 12.9 | 33.8 | 0.00 | 0.00 | 0.00 | 26 | 1020.7 |
| 20260508162435 | 15 | 31 | 16.1 | 33.8 | 0.00 | 0.00 | 0.00 | 26 | 1020.7 |
| 20260508161935 | 15 | 35 | 14.5 | 29.0 | 0.00 | 0.00 | 0.00 | 27 | 1020.6 |
| 20260508161705 | 15 | 287 | 9.7 | 22.5 | 0.00 | 0.00 | 0.00 | 26 | 1020.7 |
| 20260508161208 | 14 | 14 | 9.7 | 22.5 | 0.00 | 0.00 | 0.00 | 28 | 1020.8 |
| 20260508160435 | 14 | 311 | 11.3 | 25.7 | 0.00 | 0.00 | 0.00 | 27 | 1020.8 |
| 20260508155930 | 14 | 5 | 12.9 | 25.7 | 0.00 | 0.00 | 0.00 | 27 | 1021.0 |
| 20260508155431 | 13 | 22 | 14.5 | 29.0 | 0.00 | 0.00 | 0.00 | 31 | 1021.0 |
| 20260508154931 | 13 | 56 | 16.1 | 30.6 | 0.00 | 0.00 | 0.00 | 29 | 1021.0 |
| 20260508154431 | 13 | 5 | 16.1 | 30.6 | 0.00 | 0.00 | 0.00 | 33 | 1021.0 |
| 20260508153931 | 13 | 298 | 11.3 | 30.6 | 0.00 | 0.00 | 0.00 | 31 | 1021.0 |
| 20260508153432 | 13 | 284 | 6.4 | 19.3 | 0.00 | 0.00 | 0.00 | 32 | 1021.2 |
| 20260508152926 | 13 | 84 | 8.0 | 19.3 | 0.00 | 0.00 | 0.00 | 32 | 1021.1 |
| 20260508152658 | 13 | 211 | 4.8 | 19.3 | 0.00 | 0.00 | 0.00 | 33 | 1021.1 |
| 20260508151926 | 12 | 83 | 3.2 | 19.3 | 0.00 | 0.00 | 0.00 | 34 | 1021.1 |
| 20260508151426 | 12 | 259 | 4.8 | 11.3 | 0.00 | 0.00 | 0.00 | 36 | 1021.2 |
| 20260508150926 | 12 | 102 | 6.4 | 19.3 | 0.00 | 0.00 | 0.00 | 35 | 1021.2 |
| 20260508150428 | 11 | 130 | 3.2 | 19.3 | 0.00 | 0.00 | 0.00 | 36 | 1021.2 |
| 20260508145920 | 11 | 189 | 3.2 | 9.7 | 0.00 | 0.00 | 0.00 | 42 | 1021.2 |
| 20260508145421 | 10 | 164 | 4.8 | 11.3 | 0.00 | 0.00 | 0.00 | 45 | 1021.2 |
| 20260508144921 | 9 | 207 | 4.8 | 11.3 | 0.00 | 0.00 | 0.00 | 49 | 1021.2 |
| 20260508144420 | 8 | 264 | 4.8 | 11.3 | 0.00 | 0.00 | 0.00 | 50 | 1021.4 |
| 20260508144145 | 8 | 172 | 4.8 | 11.3 | 0.00 | 0.00 | 0.00 | 50 | 1021.4 |
| 20260508143414 | 7 | 171 | 6.4 | 9.7 | 0.00 | 0.00 | 0.00 | 54 | 1021.4 |
| 20260508142913 | 7 | 194 | 6.4 | 11.3 | 0.00 | 0.00 | 0.00 | 55 | 1021.4 |
| 20260508142412 | 6 | 167 | 4.8 | 11.3 | 0.00 | 0.00 | 0.00 | 55 | 1021.4 |
| 20260508141909 | 6 | 188 | 4.8 | 11.3 | 0.00 | 0.00 | 0.00 | 58 | 1021.4 |
| 20260508141409 | 6 | 202 | 6.4 | 11.3 | 0.00 | 0.00 | 0.00 | 58 | 1021.4 |
| 20260508140904 | 5 | 170 | 6.4 | 11.3 | 0.00 | 0.00 | 0.00 | 57 | 1021.4 |
| 20260508140632 | 5 | 184 | 6.4 | 11.3 | 0.00 | 0.00 | 0.00 | 59 | 1021.5 |
| 20260508135901 | 5 | 171 | 9.7 | 14.5 | 0.00 | 0.00 | 0.00 | 61 | 1021.5 |
| 20260508135402 | 5 | 175 | 9.7 | 16.1 | 0.00 | 0.00 | 0.00 | 62 | 1021.5 |
| 20260508134902 | 4 | 156 | 9.7 | 16.1 | 0.00 | 0.00 | 0.00 | 63 | 1021.5 |
| 20260508134400 | 3 | 180 | 11.3 | 16.1 | 0.00 | 0.00 | 0.00 | 67 | 1021.5 |
| 20260508134129 | 3 | 153 | 11.3 | 16.1 | 0.00 | 0.00 | 0.00 | 69 | 1021.4 |
| 20260508133405 | 2 | 164 | 6.4 | 11.3 | 0.00 | 0.00 | 0.00 | 73 | 1021.5 |
| 20260508133400 | 3 | 165 | 8.0 | 14.5 | 0.00 | 0.00 | 0.00 | 69 | 1021.6 |
| 20260508132359 | 1 | 165 | 6.4 | 11.3 | 0.00 | 0.00 | 0.00 | 78 | 1021.4 |
| 20260508131859 | 0 | 142 | 6.4 | 11.3 | 0.00 | 0.00 | 0.00 | 79 | 1021.4 |
| 20260508131404 | 0 | 148 | 4.8 | 8.0 | 0.00 | 0.00 | 0.00 | 78 | 1021.6 |
| 20260508131400 | 0 | 159 | 4.8 | 8.0 | 0.00 | 0.00 | 0.00 | 79 | 1021.5 |
| 20260508130356 | 0 | 221 | 4.8 | 8.0 | 0.00 | 0.00 | 0.00 | 80 | 1021.5 |
| 20260508125855 | 0 | 242 | 4.8 | 11.3 | 0.00 | 0.00 | 0.00 | 81 | 1021.5 |
| 20260508125354 | 0 | 213 | 6.4 | 11.3 | 0.00 | 0.00 | 0.00 | 81 | 1021.4 |
| 20260508124854 | 0 | 225 | 4.8 | 9.7 | 0.00 | 0.00 | 0.00 | 80 | 1021.4 |
| 20260508124354 | 0 | 192 | 6.4 | 14.5 | 0.00 | 0.00 | 0.00 | 80 | 1021.4 |
| 20260508123855 | 0 | 177 | 6.4 | 14.5 | 0.00 | 0.00 | 0.00 | 81 | 1021.4 |
| 20260508123354 | -1 | 169 | 6.4 | 12.9 | 0.00 | 0.00 | 0.00 | 80 | 1021.2 |
| 20260508122850 | 0 | 169 | 6.4 | 12.9 | 0.00 | 0.00 | 0.00 | 79 | 1021.4 |
| 20260508122619 | 0 | 161 | 6.4 | 11.3 | 0.00 | 0.00 | 0.00 | 79 | 1021.4 |
| 20260508121844 | 0 | 186 | 6.4 | 11.3 | 0.00 | 0.00 | 0.00 | 81 | 1021.2 |
| 20260508121343 | -1 | 167 | 6.4 | 11.3 | 0.00 | 0.00 | 0.00 | 81 | 1021.2 |
| 20260508120843 | -1 | 180 | 6.4 | 11.3 | 0.00 | 0.00 | 0.00 | 80 | 1021.1 |
| 20260508120338 | 0 | 146 | 6.4 | 8.0 | 0.00 | 0.00 | 0.00 | 79 | 1021.1 |
| 20260508115838 | -1 | 219 | 4.8 | 8.0 | 0.00 | 0.00 | 0.00 | 80 | 1021.1 |
| 20260508115338 | -1 | 220 | 4.8 | 8.0 | 0.00 | 0.00 | 0.00 | 79 | 1021.1 |
| 20260508114839 | 0 | 213 | 4.8 | 8.0 | 0.00 | 0.00 | 0.00 | 79 | 1021.0 |
| 20260508114337 | -1 | 177 | 4.8 | 8.0 | 0.00 | 0.00 | 0.00 | 79 | 1021.0 |
| 20260508113837 | -1 | 211 | 4.8 | 8.0 | 0.00 | 0.00 | 0.00 | 79 | 1021.1 |
| 20260508113329 | -1 | 216 | 3.2 | 8.0 | 0.00 | 0.00 | 0.00 | 80 | 1021.2 |
| 20260508112831 | 0 | 163 | 3.2 | 8.0 | 0.00 | 0.00 | 0.00 | 78 | 1021.1 |
| 20260508112330 | 0 | 200 | 4.8 | 11.3 | 0.00 | 0.00 | 0.00 | 78 | 1021.0 |
| 20260508111832 | 0 | 199 | 4.8 | 11.3 | 0.00 | 0.00 | 0.00 | 78 | 1021.2 |
| 20260508111331 | 0 | 204 | 6.4 | 8.0 | 0.00 | 0.00 | 0.00 | 77 | 1021.2 |
| 20260508110830 | 0 | 224 | 4.8 | 8.0 | 0.00 | 0.00 | 0.00 | 78 | 1021.2 |
| 20260508110324 | -1 | 250 | 4.8 | 6.4 | 0.00 | 0.00 | 0.00 | 78 | 1021.2 |
| 20260508105824 | -1 | 213 | 4.8 | 6.4 | 0.00 | 0.00 | 0.00 | 78 | 1021.2 |
| 20260508105556 | -1 | 219 | 4.8 | 8.0 | 0.00 | 0.00 | 0.00 | 78 | 1021.2 |
| 20260508104826 | 0 | 173 | 4.8 | 8.0 | 0.00 | 0.00 | 0.00 | 79 | 1021.4 |
| 20260508104325 | 0 | 175 | 4.8 | 8.0 | 0.00 | 0.00 | 0.00 | 77 | 1021.4 |
| 20260508103825 | 0 | 182 | 4.8 | 6.4 | 0.00 | 0.00 | 0.00 | 79 | 1021.2 |
| 20260508103319 | 0 | 198 | 4.8 | 8.0 | 0.00 | 0.00 | 0.00 | 78 | 1021.2 |
| 20260508102818 | 0 | 167 | 4.8 | 8.0 | 0.00 | 0.00 | 0.00 | 76 | 1021.4 |
| 20260508102318 | 0 | 147 | 4.8 | 8.0 | 0.00 | 0.00 | 0.00 | 77 | 1021.2 |
| 20260508101819 | 0 | 200 | 4.8 | 9.7 | 0.00 | 0.00 | 0.00 | 76 | 1021.4 |
| 20260508101319 | 0 | 167 | 6.4 | 9.7 | 0.00 | 0.00 | 0.00 | 76 | 1021.4 |
| 20260508100819 | 0 | 155 | 4.8 | 9.7 | 0.00 | 0.00 | 0.00 | 76 | 1021.4 |
| 20260508100313 | 0 | 173 | 4.8 | 8.0 | 0.00 | 0.00 | 0.00 | 75 | 1021.2 |
| 20260508095812 | 0 | 182 | 6.4 | 9.7 | 0.00 | 0.00 | 0.00 | 76 | 1021.2 |
| 20260508095313 | 0 | 173 | 8.0 | 12.9 | 0.00 | 0.00 | 0.00 | 77 | 1021.4 |
| 20260508094814 | 0 | 163 | 6.4 | 12.9 | 0.00 | 0.00 | 0.00 | 76 | 1021.2 |
| 20260508094313 | 0 | 176 | 6.4 | 11.3 | 0.00 | 0.00 | 0.00 | 76 | 1021.4 |
| 20260508093816 | 0 | 164 | 8.0 | 11.3 | 0.00 | 0.00 | 0.00 | 75 | 1021.4 |
| 20260508093310 | 0 | 149 | 8.0 | 11.3 | 0.00 | 0.00 | 0.00 | 74 | 1021.2 |
| 20260508093043 | 0 | 153 | 6.4 | 11.3 | 0.00 | 0.00 | 0.00 | 74 | 1021.4 |
| 20260508092313 | 0 | 146 | 4.8 | 9.7 | 0.00 | 0.00 | 0.00 | 74 | 1021.2 |
| 20260508091810 | 0 | 171 | 6.4 | 8.0 | 0.00 | 0.00 | 0.00 | 72 | 1021.4 |
| 20260508091311 | 1 | 173 | 6.4 | 11.3 | 0.00 | 0.00 | 0.00 | 71 | 1021.4 |
| 20260508090811 | 1 | 135 | 6.4 | 11.3 | 0.00 | 0.00 | 0.00 | 70 | 1021.4 |
| 20260508090310 | 1 | 169 | 4.8 | 8.0 | 0.00 | 0.00 | 0.00 | 69 | 1021.4 |
| 20260508090041 | 1 | 192 | 6.4 | 11.3 | 0.00 | 0.00 | 0.00 | 69 | 1021.4 |
| 20260508085308 | 1 | 203 | 8.0 | 12.9 | 0.00 | 0.00 | 0.00 | 67 | 1021.4 |
| 20260508084808 | 1 | 215 | 6.4 | 12.9 | 0.00 | 0.00 | 0.00 | 68 | 1021.4 |
| 20260508084307 | 1 | 209 | 6.4 | 9.7 | 0.00 | 0.00 | 0.00 | 69 | 1021.2 |
| 20260508083805 | 1 | 197 | 4.8 | 9.7 | 0.00 | 0.00 | 0.00 | 69 | 1021.2 |
| 20260508083305 | 0 | 212 | 6.4 | 11.3 | 0.00 | 0.00 | 0.00 | 68 | 1021.4 |
| 20260508082759 | 0 | 204 | 8.0 | 12.9 | 0.00 | 0.00 | 0.00 | 69 | 1021.4 |
| 20260508082258 | 0 | 213 | 8.0 | 12.9 | 0.00 | 0.00 | 0.00 | 70 | 1021.4 |
| 20260508081758 | 0 | 217 | 6.4 | 12.9 | 0.00 | 0.00 | 0.00 | 72 | 1021.5 |
| 20260508081259 | 0 | 200 | 8.0 | 12.9 | 0.00 | 0.00 | 0.00 | 72 | 1021.5 |
| 20260508080759 | 0 | 238 | 9.7 | 12.9 | 0.00 | 0.00 | 0.00 | 73 | 1021.4 |
| 20260508080259 | 0 | 267 | 8.0 | 12.9 | 0.00 | 0.00 | 0.00 | 73 | 1021.4 |
| 20260508075754 | 0 | 263 | 4.8 | 11.3 | 0.00 | 0.00 | 0.00 | 72 | 1021.4 |
| 20260508075255 | 0 | 228 | 3.2 | 6.4 | 0.00 | 0.00 | 0.00 | 70 | 1021.4 |
| 20260508074752 | 0 | 254 | 3.2 | 6.4 | 0.00 | 0.00 | 0.00 | 69 | 1021.4 |
| 20260508074253 | 1 | 253 | 3.2 | 6.4 | 0.00 | 0.00 | 0.00 | 68 | 1021.2 |
| 20260508073753 | 1 | 213 | 4.8 | 6.4 | 0.00 | 0.00 | 0.00 | 68 | 1021.4 |
| 20260508073253 | 1 | 213 | 4.8 | 9.7 | 0.00 | 0.00 | 0.00 | 65 | 1021.4 |
| 20260508073022 | 1 | 193 | 6.4 | 9.7 | 0.00 | 0.00 | 0.00 | 66 | 1021.5 |
| 20260508072523 | 1 | 192 | 4.8 | 9.7 | 0.00 | 0.00 | 0.00 | 69 | 1021.5 |
| 20260508071751 | 1 | 181 | 3.2 | 6.4 | 0.00 | 0.00 | 0.00 | 65 | 1021.6 |
| 20260508071251 | 2 | 188 | 4.8 | 9.7 | 0.00 | 0.00 | 0.00 | 66 | 1021.6 |
| 20260508070751 | 2 | 187 | 4.8 | 9.7 | 0.00 | 0.00 | 0.00 | 64 | 1021.6 |
| 20260508070251 | 2 | 180 | 4.8 | 8.0 | 0.00 | 0.00 | 0.00 | 60 | 1021.6 |
| 20260508065751 | 2 | 175 | 6.4 | 9.7 | 0.00 | 0.00 | 0.00 | 60 | 1021.6 |
| 20260508065245 | 2 | 217 | 6.4 | 9.7 | 0.00 | 0.00 | 0.00 | 60 | 1021.5 |
| 20260508064743 | 2 | 227 | 8.0 | 11.3 | 0.00 | 0.00 | 0.00 | 61 | 1021.4 |
| 20260508064244 | 2 | 218 | 8.0 | 14.5 | 0.00 | 0.00 | 0.00 | 61 | 1021.4 |
| 20260508063745 | 2 | 233 | 6.4 | 14.5 | 0.00 | 0.00 | 0.00 | 60 | 1021.4 |
| 20260508063245 | 2 | 254 | 4.8 | 11.3 | 0.00 | 0.00 | 0.00 | 59 | 1021.4 |
| 20260508062745 | 2 | 243 | 6.4 | 11.3 | 0.00 | 0.00 | 0.00 | 58 | 1021.2 |
| 20260508062238 | 3 | 260 | 6.4 | 11.3 | 0.00 | 0.00 | 0.00 | 58 | 1021.4 |
| 20260508061739 | 3 | 269 | 4.8 | 9.7 | 0.00 | 0.00 | 0.00 | 56 | 1021.4 |
| 20260508061238 | 3 | 245 | 4.8 | 8.0 | 0.00 | 0.00 | 0.00 | 55 | 1021.4 |
| 20260508060739 | 3 | 236 | 4.8 | 8.0 | 0.00 | 0.00 | 0.00 | 54 | 1021.4 |
| 20260508060239 | 3 | 236 | 6.4 | 8.0 | 0.00 | 0.00 | 0.00 | 54 | 1021.4 |
| 20260508055739 | 4 | 229 | 4.8 | 8.0 | 0.00 | 0.00 | 0.00 | 54 | 1021.4 |
| 20260508055237 | 4 | 216 | 4.8 | 6.4 | 0.00 | 0.00 | 0.00 | 55 | 1021.4 |
| 20260508054734 | 4 | 208 | 4.8 | 8.0 | 0.00 | 0.00 | 0.00 | 54 | 1021.6 |
| 20260508054235 | 4 | 209 | 4.8 | 11.3 | 0.00 | 0.00 | 0.00 | 53 | 1021.6 |
| 20260508053735 | 4 | 257 | 4.8 | 11.3 | 0.00 | 0.00 | 0.00 | 54 | 1021.6 |
| 20260508053233 | 4 | 253 | 4.8 | 8.0 | 0.00 | 0.00 | 0.00 | 53 | 1021.5 |
| 20260508053003 | 5 | 246 | 4.8 | 6.4 | 0.00 | 0.00 | 0.00 | 52 | 1021.5 |
| 20260508052502 | 5 | 244 | 4.8 | 6.4 | 0.00 | 0.00 | 0.00 | 52 | 1021.6 |
| 20260508051730 | 5 | 229 | 3.2 | 6.4 | 0.00 | 0.00 | 0.00 | 51 | 1021.7 |
| 20260508051229 | 5 | 234 | 3.2 | 6.4 | 0.00 | 0.00 | 0.00 | 51 | 1021.6 |
| 20260508050729 | 5 | 238 | 4.8 | 6.4 | 0.00 | 0.00 | 0.00 | 50 | 1021.7 |
| 20260508050227 | 5 | 217 | 4.8 | 6.4 | 0.00 | 0.00 | 0.00 | 50 | 1021.5 |
| 20260508045958 | 5 | 236 | 4.8 | 6.4 | 0.00 | 0.00 | 0.00 | 48 | 1021.6 |
| 20260508045224 | 5 | 203 | 4.8 | 6.4 | 0.00 | 0.00 | 0.00 | 48 | 1021.5 |
| 20260508044725 | 5 | 216 | 3.2 | 6.4 | 0.00 | 0.00 | 0.00 | 48 | 1021.6 |
| 20260508044229 | 6 | 223 | 1.6 | 4.8 | 0.00 | 0.00 | 0.00 | 47 | 1021.7 |
| 20260508044225 | 6 | 203 | 1.6 | 4.8 | 0.00 | 0.00 | 0.00 | 47 | 1021.6 |
| 20260508043225 | 6 | 206 | 0.0 | 4.8 | 0.00 | 0.00 | 0.00 | 47 | 1021.7 |
| 20260508042724 | 6 | 169 | 1.6 | 8.0 | 0.00 | 0.00 | 0.00 | 47 | 1021.6 |
| 20260508042224 | 6 | 167 | 3.2 | 8.0 | 0.00 | 0.00 | 0.00 | 48 | 1021.7 |
| 20260508041718 | 6 | 175 | 4.8 | 9.7 | 0.00 | 0.00 | 0.00 | 47 | 1021.5 |
| 20260508041217 | 6 | 212 | 6.4 | 11.3 | 0.00 | 0.00 | 0.00 | 45 | 1021.6 |
| 20260508040717 | 6 | 205 | 6.4 | 11.3 | 0.00 | 0.00 | 0.00 | 45 | 1021.6 |
| 20260508040217 | 6 | 203 | 4.8 | 11.3 | 0.00 | 0.00 | 0.00 | 45 | 1021.5 |
| 20260508035716 | 6 | 254 | 4.8 | 8.0 | 0.00 | 0.00 | 0.00 | 46 | 1021.5 |
| 20260508035216 | 6 | 254 | 4.8 | 11.3 | 0.00 | 0.00 | 0.00 | 46 | 1021.5 |
| 20260508034717 | 6 | 136 | 6.4 | 11.3 | 0.00 | 0.00 | 0.00 | 44 | 1021.2 |
| 20260508034215 | 6 | 192 | 8.0 | 14.5 | 0.00 | 0.00 | 0.00 | 43 | 1021.2 |
| 20260508033717 | 5 | 203 | 8.0 | 14.5 | 0.00 | 0.00 | 0.00 | 45 | 1021.2 |
| 20260508033442 | 5 | 254 | 6.4 | 11.3 | 0.00 | 0.00 | 0.00 | 46 | 1021.2 |
| 20260508032712 | 5 | 251 | 3.2 | 9.7 | 0.00 | 0.00 | 0.00 | 45 | 1021.1 |
| 20260508032212 | 6 | 190 | 3.2 | 6.4 | 0.00 | 0.00 | 0.00 | 45 | 1021.0 |
| 20260508031712 | 6 | 192 | 3.2 | 8.0 | 0.00 | 0.00 | 0.00 | 43 | 1021.0 |
| 20260508031211 | 6 | 191 | 3.2 | 8.0 | 0.00 | 0.00 | 0.00 | 43 | 1020.8 |
| 20260508030713 | 6 | 216 | 3.2 | 9.7 | 0.00 | 0.00 | 0.00 | 42 | 1020.8 |
| 20260508030208 | 6 | 177 | 4.8 | 9.7 | 0.00 | 0.00 | 0.00 | 42 | 1020.7 |
| 20260508025708 | 7 | 221 | 4.8 | 9.7 | 0.00 | 0.00 | 0.00 | 41 | 1020.7 |
| 20260508025209 | 7 | 216 | 3.2 | 8.0 | 0.00 | 0.00 | 0.00 | 38 | 1020.6 |
| 20260508024708 | 7 | 147 | 3.2 | 8.0 | 0.00 | 0.00 | 0.00 | 38 | 1020.4 |
| 20260508024208 | 7 | 34 | 3.2 | 6.4 | 0.00 | 0.00 | 0.00 | 38 | 1020.4 |
| 20260508023709 | 7 | 348 | 1.6 | 4.8 | 0.00 | 0.00 | 0.00 | 37 | 1020.3 |
| 20260508023203 | 8 | 340 | 1.6 | 4.8 | 0.00 | 0.00 | 0.00 | 36 | 1020.3 |
| 20260508022704 | 8 | 5 | 1.6 | 4.8 | 0.00 | 0.00 | 0.00 | 34 | 1020.2 |
| 20260508022205 | 9 | 305 | 3.2 | 4.8 | 0.00 | 0.00 | 0.00 | 34 | 1020.2 |
| 20260508021704 | 10 | 24 | 3.2 | 6.4 | 0.00 | 0.00 | 0.00 | 33 | 1020.0 |
| 20260508021203 | 10 | 317 | 3.2 | 6.4 | 0.00 | 0.00 | 0.00 | 32 | 1020.2 |
| 20260508020705 | 10 | 335 | 3.2 | 9.7 | 0.00 | 0.00 | 0.00 | 31 | 1020.0 |
| 20260508020205 | 10 | 331 | 3.2 | 8.0 | 0.00 | 0.00 | 0.00 | 31 | 1020.0 |
| 20260508020200 | 10 | 270 | 3.2 | 9.7 | 0.00 | 0.00 | 0.00 | 31 | 1020.0 |
| 20260508015200 | 11 | 335 | 3.2 | 8.0 | 0.00 | 0.00 | 0.00 | 31 | 1019.9 |
| 20260508014659 | 11 | 317 | 3.2 | 9.7 | 0.00 | 0.00 | 0.00 | 30 | 1019.9 |
| 20260508014159 | 11 | 332 | 3.2 | 9.7 | 0.00 | 0.00 | 0.00 | 29 | 1019.9 |
| 20260508013701 | 11 | 355 | 3.2 | 9.7 | 0.00 | 0.00 | 0.00 | 29 | 1019.9 |
| 20260508013155 | 11 | 312 | 4.8 | 11.3 | 0.00 | 0.00 | 0.00 | 29 | 1019.8 |
| 20260508012927 | 12 | 322 | 6.4 | 14.5 | 0.00 | 0.00 | 0.00 | 29 | 1019.8 |
| 20260508012154 | 12 | 318 | 9.7 | 16.1 | 0.00 | 0.00 | 0.00 | 28 | 1019.7 |
| 20260508011654 | 12 | 19 | 11.3 | 19.3 | 0.00 | 0.00 | 0.00 | 27 | 1019.7 |
| 20260508011155 | 12 | 46 | 11.3 | 19.3 | 0.00 | 0.00 | 0.00 | 27 | 1019.7 |
| 20260508010655 | 13 | 350 | 9.7 | 17.7 | 0.00 | 0.00 | 0.00 | 27 | 1019.7 |
| 20260508010650 | 13 | 12 | 9.7 | 19.3 | 0.00 | 0.00 | 0.00 | 27 | 1019.7 |
| 20260508005654 | 13 | 47 | 11.3 | 25.7 | 0.00 | 0.00 | 0.00 | 26 | 1019.7 |
| 20260508005649 | 13 | 19 | 11.3 | 19.3 | 0.00 | 0.00 | 0.00 | 27 | 1019.7 |
| 20260508005149 | 13 | 15 | 11.3 | 25.7 | 0.00 | 0.00 | 0.00 | 27 | 1019.7 |
| 20260508004148 | 13 | 5 | 12.9 | 29.0 | 0.00 | 0.00 | 0.00 | 26 | 1019.7 |
| 20260508003647 | 14 | 338 | 12.9 | 29.0 | 0.00 | 0.00 | 0.00 | 25 | 1019.7 |
| 20260508003147 | 14 | 44 | 11.3 | 20.9 | 0.00 | 0.00 | 0.00 | 24 | 1019.5 |
| 20260508002643 | 14 | 43 | 11.3 | 24.1 | 0.00 | 0.00 | 0.00 | 25 | 1019.5 |
| 20260508002141 | 14 | 5 | 12.9 | 25.7 | 0.00 | 0.00 | 0.00 | 25 | 1019.4 |
| 20260508001641 | 15 | 330 | 9.7 | 25.7 | 0.00 | 0.00 | 0.00 | 24 | 1019.7 |
| 20260508001412 | 15 | 11 | 8.0 | 22.5 | 0.00 | 0.00 | 0.00 | 24 | 1019.4 |
| 20260508000641 | 14 | 327 | 9.7 | 32.2 | 0.00 | 0.00 | 0.00 | 23 | 1019.5 |
| 20260508000141 | 14 | 32 | 12.9 | 32.2 | 0.00 | 0.00 | 0.00 | 24 | 1019.5 |
| 20260507235642 | 15 | 35 | 12.9 | 29.0 | 0.00 | 0.00 | 0.00 | 23 | 1019.4 |
| 20260507235137 | 15 | 27 | 8.0 | 35.4 | 0.00 | 0.00 | 0.00 | 23 | 1019.4 |
| 20260507234908 | 15 | 98 | 4.8 | 35.4 | 0.00 | 0.00 | 0.00 | 23 | 1019.4 |
| 20260507234137 | 15 | 338 | 8.0 | 19.3 | 0.00 | 0.00 | 0.00 | 23 | 1019.4 |
| 20260507233637 | 15 | 349 | 9.7 | 41.8 | 0.00 | 0.00 | 0.00 | 23 | 1019.5 |
| 20260507233137 | 15 | 320 | 8.0 | 41.8 | 0.00 | 0.00 | 0.00 | 23 | 1019.5 |
| 20260507232643 | 15 | 5 | 8.0 | 19.3 | 0.00 | 0.00 | 0.00 | 24 | 1019.5 |
| 20260507232638 | 15 | 269 | 8.0 | 19.3 | 0.00 | 0.00 | 0.00 | 24 | 1019.5 |
| 20260507231633 | 15 | 250 | 8.0 | 19.3 | 0.00 | 0.00 | 0.00 | 22 | 1019.5 |
| 20260507231131 | 15 | 355 | 9.7 | 24.1 | 0.00 | 0.00 | 0.00 | 23 | 1019.5 |
| 20260507230901 | 15 | 326 | 12.9 | 35.4 | 0.00 | 0.00 | 0.00 | 23 | 1019.7 |
| 20260507230131 | 16 | 295 | 16.1 | 35.4 | 0.00 | 0.00 | 0.00 | 23 | 1019.5 |
| 20260507225627 | 15 | 233 | 14.5 | 29.0 | 0.00 | 0.00 | 0.00 | 22 | 1019.4 |
| 20260507225128 | 15 | 307 | 12.9 | 29.0 | 0.00 | 0.00 | 0.00 | 23 | 1019.5 |
| 20260507224623 | 15 | 325 | 12.9 | 33.8 | 0.00 | 0.00 | 0.00 | 24 | 1019.5 |
| 20260507224122 | 15 | 281 | 11.3 | 33.8 | 0.00 | 0.00 | 0.00 | 23 | 1019.5 |
| 20260507223623 | 14 | 290 | 14.5 | 37.0 | 0.00 | 0.00 | 0.00 | 23 | 1019.5 |
| 20260507223122 | 14 | 281 | 19.3 | 38.6 | 0.00 | 0.00 | 0.00 | 23 | 1019.8 |
| 20260507222622 | 15 | 237 | 14.5 | 38.6 | 0.00 | 0.00 | 0.00 | 21 | 1019.7 |
| 20260507222122 | 15 | 294 | 11.3 | 22.5 | 0.00 | 0.00 | 0.00 | 21 | 1019.5 |
| 20260507221616 | 15 | 28 | 11.3 | 25.7 | 0.00 | 0.00 | 0.00 | 24 | 1019.7 |
| 20260507221116 | 16 | 306 | 11.3 | 25.7 | 0.00 | 0.00 | 0.00 | 22 | 1019.5 |
| 20260507220616 | 15 | 65 | 11.3 | 20.9 | 0.00 | 0.00 | 0.00 | 23 | 1019.5 |
| 20260507220116 | 16 | 36 | 11.3 | 24.1 | 0.00 | 0.00 | 0.00 | 22 | 1019.4 |
| 20260507215616 | 16 | 171 | 9.7 | 24.1 | 0.00 | 0.00 | 0.00 | 20 | 1019.5 |
| 20260507215116 | 16 | 33 | 9.7 | 25.7 | 0.00 | 0.00 | 0.00 | 22 | 1019.5 |
| 20260507214841 | 16 | 202 | 12.9 | 27.4 | 0.00 | 0.00 | 0.00 | 22 | 1019.7 |
| 20260507214109 | 16 | 268 | 11.3 | 27.4 | 0.00 | 0.00 | 0.00 | 19 | 1019.5 |
| 20260507213609 | 16 | 355 | 8.0 | 19.3 | 0.00 | 0.00 | 0.00 | 22 | 1019.7 |
| 20260507213110 | 16 | 109 | 8.0 | 17.7 | 0.00 | 0.00 | 0.00 | 20 | 1019.7 |
| 20260507212610 | 16 | 355 | 11.3 | 19.3 | 0.00 | 0.00 | 0.00 | 20 | 1019.8 |
| 20260507212110 | 16 | 312 | 9.7 | 20.9 | 0.00 | 0.00 | 0.00 | 20 | 1019.9 |
| 20260507211609 | 16 | 32 | 9.7 | 27.4 | 0.00 | 0.00 | 0.00 | 21 | 1019.9 |
| 20260507211605 | 16 | 284 | 9.7 | 27.4 | 0.00 | 0.00 | 0.00 | 21 | 1019.9 |
| 20260507210604 | 16 | 308 | 9.7 | 25.7 | 0.00 | 0.00 | 0.00 | 22 | 1019.9 |
| 20260507210336 | 16 | 335 | 9.7 | 22.5 | 0.00 | 0.00 | 0.00 | 21 | 1020.0 |
| 20260507205604 | 15 | 0 | 11.3 | 25.7 | 0.00 | 0.00 | 0.00 | 22 | 1020.0 |
| 20260507205104 | 16 | 355 | 12.9 | 25.7 | 0.00 | 0.00 | 0.00 | 23 | 1020.0 |
| 20260507204559 | 16 | 303 | 11.3 | 24.1 | 0.00 | 0.00 | 0.00 | 23 | 1020.0 |
| 20260507204100 | 15 | 44 | 9.7 | 24.1 | 0.00 | 0.00 | 0.00 | 21 | 1020.2 |
| 20260507203830 | 15 | 32 | 8.0 | 24.1 | 0.00 | 0.00 | 0.00 | 22 | 1020.0 |
| 20260507203100 | 15 | 291 | 11.3 | 27.4 | 0.00 | 0.00 | 0.00 | 19 | 1020.3 |
| 20260507202558 | 15 | 33 | 11.3 | 27.4 | 0.00 | 0.00 | 0.00 | 21 | 1020.3 |
| 20260507202057 | 15 | 327 | 12.9 | 22.5 | 0.00 | 0.00 | 0.00 | 20 | 1020.4 |
| 20260507201551 | 15 | 27 | 12.9 | 22.5 | 0.00 | 0.00 | 0.00 | 20 | 1020.4 |
| 20260507201052 | 15 | 328 | 14.5 | 29.0 | 0.00 | 0.00 | 0.00 | 23 | 1020.6 |
| 20260507200823 | 15 | 278 | 14.5 | 29.0 | 0.00 | 0.00 | 0.00 | 21 | 1020.4 |
| 20260507200052 | 15 | 263 | 14.5 | 40.2 | 0.00 | 0.00 | 0.00 | 22 | 1020.6 |
| 20260507195552 | 15 | 44 | 14.5 | 40.2 | 0.00 | 0.00 | 0.00 | 22 | 1020.6 |
| 20260507195051 | 15 | 259 | 12.9 | 27.4 | 0.00 | 0.00 | 0.00 | 22 | 1020.6 |
| 20260507194549 | 15 | 294 | 12.9 | 27.4 | 0.00 | 0.00 | 0.00 | 22 | 1020.7 |
| 20260507194322 | 15 | 313 | 11.3 | 24.1 | 0.00 | 0.00 | 0.00 | 24 | 1020.6 |
| 20260507193550 | 15 | 17 | 9.7 | 24.1 | 0.00 | 0.00 | 0.00 | 24 | 1020.8 |
| 20260507193050 | 15 | 92 | 8.0 | 20.9 | 0.00 | 0.00 | 0.00 | 23 | 1020.7 |
| 20260507192550 | 15 | 57 | 8.0 | 19.3 | 0.00 | 0.00 | 0.00 | 23 | 1020.8 |
| 20260507192050 | 15 | 247 | 8.0 | 19.3 | 0.00 | 0.00 | 0.00 | 24 | 1021.1 |
| 20260507191550 | 15 | 11 | 9.7 | 24.1 | 0.00 | 0.00 | 0.00 | 21 | 1021.0 |
| 20260507191047 | 15 | 31 | 9.7 | 24.1 | 0.00 | 0.00 | 0.00 | 22 | 1021.0 |
| 20260507190820 | 15 | 9 | 9.7 | 22.5 | 0.00 | 0.00 | 0.00 | 22 | 1021.1 |
| 20260507190047 | 15 | 78 | 8.0 | 19.3 | 0.00 | 0.00 | 0.00 | 23 | 1021.0 |
| 20260507185547 | 14 | 32 | 6.4 | 19.3 | 0.00 | 0.00 | 0.00 | 22 | 1020.8 |
| 20260507185046 | 14 | 324 | 3.2 | 12.9 | 0.00 | 0.00 | 0.00 | 21 | 1021.0 |
| 20260507184818 | 14 | 309 | 4.8 | 12.9 | 0.00 | 0.00 | 0.00 | 22 | 1021.2 |
| 20260507184048 | 14 | 68 | 6.4 | 22.5 | 0.00 | 0.00 | 0.00 | 21 | 1021.2 |
| 20260507183547 | 13 | 123 | 8.0 | 16.1 | 0.00 | 0.00 | 0.00 | 20 | 1021.2 |
| 20260507183543 | 13 | 53 | 8.0 | 22.5 | 0.00 | 0.00 | 0.00 | 24 | 1021.2 |
| 20260507182543 | 13 | 140 | 8.0 | 16.1 | 0.00 | 0.00 | 0.00 | 21 | 1021.4 |
| 20260507182043 | 13 | 107 | 6.4 | 16.1 | 0.00 | 0.00 | 0.00 | 23 | 1021.4 |
| 20260507181543 | 12 | 101 | 8.0 | 20.9 | 0.00 | 0.03 | 0.00 | 21 | 1021.4 |
| 20260507181044 | 13 | 116 | 9.7 | 20.9 | 0.00 | 0.03 | 0.00 | 20 | 1021.5 |
| 20260507180544 | 13 | 217 | 8.0 | 19.3 | 0.00 | 0.03 | 0.00 | 22 | 1021.5 |
| 20260507180038 | 12 | 140 | 9.7 | 22.5 | 0.00 | 0.05 | 0.00 | 22 | 1021.6 |
| 20260507175538 | 12 | 178 | 9.7 | 22.5 | 0.00 | 0.05 | 0.00 | 21 | 1021.6 |
| 20260507175037 | 12 | 161 | 6.4 | 14.5 | 0.00 | 0.05 | 0.00 | 23 | 1021.7 |
| 20260507174536 | 12 | 198 | 4.8 | 11.3 | 0.00 | 0.05 | 0.00 | 23 | 1021.7 |
| 20260507174307 | 11 | 198 | 3.2 | 11.3 | 0.00 | 0.05 | 0.00 | 22 | 1022.0 |
| 20260507173537 | 11 | 300 | 3.2 | 8.0 | 0.00 | 0.05 | 0.00 | 22 | 1022.0 |
| 20260507173037 | 11 | 196 | 4.8 | 14.5 | 0.00 | 0.05 | 0.00 | 22 | 1022.1 |
| 20260507172537 | 11 | 5 | 6.4 | 14.5 | 0.00 | 0.05 | 0.00 | 22 | 1022.1 |